This is the latest recevied weather packets stored in our database for station/object KN6DHD. If no packets are shown the sender has not sent any weather packets the latest 10 day(s).
| Time | Temp. | Humidity | Pressure | Rain* | Wind** | Luminosity | Snow |
|---|---|---|---|---|---|---|---|
| 1777049592 | 15° C | 79% | 1014.5 hPa | 0 mm | - | 68 W/m² | - |
| 1777049291 | 15° C | 80% | 1014.6 hPa | 0 mm | - | 67 W/m² | - |
| 1777048987 | 14.44° C | 80% | 1014.6 hPa | 0 mm | - | 67 W/m² | - |
| 1777048682 | 14.44° C | 81% | 1014.5 hPa | 0 mm | - | 71 W/m² | - |
| 1777048378 | 15° C | 81% | 1014.6 hPa | 0 mm | - | 75 W/m² | - |
| 1777048077 | 14.44° C | 83% | 1014.5 hPa | 0 mm | - | 76 W/m² | - |
| 1777047773 | 13.89° C | 84% | 1014.7 hPa | 0 mm | - | 78 W/m² | - |
| 1777047470 | 13.89° C | 84% | 1014.8 hPa | 0 mm | - | 73 W/m² | - |
| 1777047169 | 13.89° C | 84% | 1014.6 hPa | 0 mm | - | 76 W/m² | - |
| 1777046866 | 13.89° C | 84% | 1014.5 hPa | 0 mm | - | 75 W/m² | - |
| 1777046563 | 13.89° C | 84% | 1014.7 hPa | 0 mm | - | 73 W/m² | - |
| 1777046258 | 13.89° C | 84% | 1014.8 hPa | 0 mm | - | 80 W/m² | - |
| 1777045954 | 13.89° C | 84% | 1014.6 hPa | 0 mm | - | 74 W/m² | - |
| 1777045650 | 13.33° C | 84% | 1014.8 hPa | 0 mm | - | 69 W/m² | - |
| 1777045347 | 13.33° C | 86% | 1014.6 hPa | 0 mm | - | 64 W/m² | - |
| 1777045042 | 12.78° C | 87% | 1014.5 hPa | 0 mm | - | 62 W/m² | - |
| 1777044738 | 12.78° C | 87% | 1014.8 hPa | 0 mm | - | 68 W/m² | - |
| 1777044435 | 12.78° C | 87% | 1014.8 hPa | 0 mm | - | 59 W/m² | - |
| 1777044135 | 12.78° C | 87% | 1014.7 hPa | 0 mm | - | 53 W/m² | - |
| 1777043832 | 12.78° C | 87% | 1014.7 hPa | 0 mm | - | 58 W/m² | - |
| 1777043529 | 12.22° C | 88% | 1014.6 hPa | 0 mm | - | 69 W/m² | - |
| 1777043225 | 12.22° C | 88% | 1014.6 hPa | 0 mm | - | 65 W/m² | - |
| 1777042920 | 12.22° C | 89% | 1014.7 hPa | 0 mm | - | 39 W/m² | - |
| 1777042616 | 12.22° C | 88% | 1014.7 hPa | 0 mm | - | 35 W/m² | - |
| 1777042311 | 12.22° C | 88% | 1014.6 hPa | 0 mm | - | 34 W/m² | - |
* Rain latest hour (hover to see other rain measurements)
** Current wind speed in m/s (hover to see current wind gust speed)